Weather History for Siemreap, Cambodia

Change the Weather History Date:

Monday, December 2, 2013

  Actual Average Record
Temperature  
Mean Temperature 75 °F -  
Max Temperature 82 °F - - ()
Min Temperature 68 °F - - ()
Cooling Degree Days 10    
Growing Degree Days 25 (Base 50)    
Moisture  
Dew Point 63 °F    
Average Humidity 65    
Maximum Humidity 83    
Minimum Humidity 51    
Precipitation  
Precipitation 0.00 in - - ()
Sea Level Pressure  
Sea Level Pressure 29.91 in    
Wind  
Wind Speed 4 mph ()    
Max Wind Speed 10 mph    
Max Gust Speed -    
Visibility 5.8 miles    
Events      
T = Trace of Precipitation, MM = Missing Value Source: Averaged Metar Reports

Daily Weather History Graph

Daily Weather History Graph

Search for Another Location

Airport:

Trip Planner

Search our weather history database for the weather conditions in past years. The results will help you decide how hot, cold, wet, or windy it might be!

Date:

Astronomy

Dec. 02, 2013 Rise Set
Actual Time 6:12 AM ICT 5:35 PM ICT
Civil Twilight 5:49 AM ICT 5:58 PM ICT
Nautical Twilight 5:22 AM ICT 6:24 PM ICT
Astronomical Twilight 4:56 AM ICT 6:51 PM ICT
Moon 5:10 AM ICT (12/2) 5:02 PM ICT (12/2)
Length of Visible Light 12h 09m
Length of Day
11h 23m
Waning Crescent, 1% of the Moon is Illuminated
Dec 2
Waning Crescent
Dec 3
New
Dec 9
First Quarter
Dec 17
Full
Dec 25
Last Quarter

Hourly Weather History & Observations

Time (ICT) Temp. Heat Index Dew Point Humidity Pressure Visibility Wind Dir Wind Speed Gust Speed Precip Events Conditions
12:00 AM 71.6 °F - 62.6 °F 73% 29.95 in 5.6 mi NNE 6.9 mph - N/A   Partly Cloudy
12:30 AM 69.8 °F - 62.6 °F 78% 29.95 in 5.6 mi North 5.8 mph - N/A   Partly Cloudy
1:00 AM 69.8 °F - 62.6 °F 78% 29.92 in 5.6 mi North 5.8 mph - N/A   Partly Cloudy
7:00 AM 68.0 °F - 62.6 °F 83% 29.95 in 5.6 mi Variable 1.2 mph - N/A   Scattered Clouds
7:30 AM 68.0 °F - 60.8 °F 78% 29.95 in 5.6 mi NNW 4.6 mph - N/A   Scattered Clouds
8:00 AM 69.8 °F - 60.8 °F 73% 29.98 in 5.6 mi NNE 5.8 mph - N/A   Scattered Clouds
8:30 AM 71.6 °F - 60.8 °F 69% 29.98 in 5.6 mi NNE 6.9 mph - N/A   Scattered Clouds
9:00 AM 73.4 °F - 60.8 °F 65% 29.98 in 5.6 mi NE 8.1 mph - N/A   Scattered Clouds
9:30 AM 73.4 °F - 60.8 °F 65% 29.98 in 5.6 mi North 4.6 mph - N/A   Scattered Clouds
10:00 AM 75.2 °F - 60.8 °F 61% 29.98 in 5.6 mi Variable 3.5 mph - N/A   Scattered Clouds
10:30 AM 75.2 °F - 60.8 °F 61% 29.98 in 5.6 mi Variable 3.5 mph - N/A   Scattered Clouds
11:00 AM 77.0 °F - 60.8 °F 57% 29.98 in 5.6 mi Variable 3.5 mph - N/A   Scattered Clouds
11:30 AM 78.8 °F - 60.8 °F 54% 29.95 in 5.6 mi Variable 3.5 mph - N/A   Scattered Clouds
12:00 PM 78.8 °F - 60.8 °F 54% 29.95 in 6.2 mi Variable 3.5 mph - N/A   Partly Cloudy
12:30 PM 78.8 °F - 60.8 °F 54% 29.92 in 6.2 mi Variable 3.5 mph - N/A   Partly Cloudy
1:00 PM 78.8 °F - 62.6 °F 57% 29.89 in 6.2 mi Variable 3.5 mph - N/A   Partly Cloudy
1:30 PM 80.6 °F 81.8 °F 62.6 °F 54% 29.86 in 6.2 mi Variable 2.3 mph - N/A   Partly Cloudy
2:00 PM 80.6 °F 81.8 °F 62.6 °F 54% 29.86 in 6.2 mi NNE 4.6 mph - N/A   Partly Cloudy
2:30 PM 80.6 °F 81.8 °F 62.6 °F 54% 29.86 in 6.2 mi Variable 3.5 mph - N/A   Partly Cloudy
3:00 PM 82.4 °F 83.4 °F 62.6 °F 51% 29.83 in 6.2 mi Variable 3.5 mph - N/A   Partly Cloudy
3:30 PM 82.4 °F 83.4 °F 62.6 °F 51% 29.83 in 6.2 mi Variable 3.5 mph - N/A   Partly Cloudy
4:00 PM 82.4 °F 83.4 °F 62.6 °F 51% 29.83 in 6.2 mi North 5.8 mph - N/A   Partly Cloudy
4:30 PM 82.4 °F 83.4 °F 62.6 °F 51% 29.83 in 6.2 mi North 5.8 mph - N/A   Partly Cloudy
5:00 PM 80.6 °F 81.8 °F 62.6 °F 54% 29.83 in 6.2 mi North 4.6 mph - N/A   Partly Cloudy
5:30 PM 78.8 °F - 64.4 °F 61% 29.86 in 6.2 mi Variable 3.5 mph - N/A   Partly Cloudy
6:00 PM 78.8 °F - 64.4 °F 61% 29.86 in 6.2 mi North 4.6 mph - N/A   Partly Cloudy
6:30 PM 77.0 °F - 66.2 °F 69% 29.86 in 5.6 mi North 4.6 mph - N/A   Unknown
7:00 PM 77.0 °F - 66.2 °F 69% 29.89 in 5.6 mi NNW 4.6 mph - N/A   Unknown
7:30 PM 77.0 °F - 66.2 °F 69% 29.89 in 5.6 mi NNW 4.6 mph - N/A   Unknown
8:00 PM 75.2 °F - 66.2 °F 73% 29.92 in 5.6 mi Calm Calm - N/A   Unknown
8:30 PM 75.2 °F - 66.2 °F 73% 29.92 in 5.6 mi North 4.6 mph - N/A   Unknown
9:00 PM 73.4 °F - 66.2 °F 78% 29.92 in 5.6 mi North 6.9 mph - N/A   Unknown
9:30 PM 75.2 °F - 64.4 °F 69% 29.92 in 5.6 mi NNW 10.4 mph - N/A   Unknown
10:00 PM 73.4 °F - 64.4 °F 73% 29.92 in 5.6 mi North 6.9 mph - N/A   Unknown
10:30 PM 73.4 °F - 64.4 °F 73% 29.92 in 5.6 mi North 6.9 mph - N/A   Unknown
11:00 PM 73.4 °F - 62.6 °F 69% 29.92 in 5.6 mi North 4.6 mph - N/A   Unknown
11:30 PM 71.6 °F - 62.6 °F 73% 29.92 in 5.6 mi North 4.6 mph - N/A   Unknown